Location: Avully
(45.9633°N, 6.0228°E)
Time: 03:11:44
(UTC+00:00)

Cosmos 1455 - Pass Details

Date: 23 May 2024
Orbit: 445 x 460 km, 82.5° (Epoch: 17 June)

Event Time Altitude Azimuth Distance (km) Brightness Sun altitude
Rises 00:27:03 0° 1° (N) 2,459 7.0 -22.3°
Reaches altitude 10° 00:29:21 10° 14° (NNE) 1,584 5.8 -22.2°
Maximum altitude 00:32:20 27° 74° (ENE) 900 3.7 -22.0°
Enters shadow 00:33:01 25° 96° (E) 948 3.6 -22.0°
